Dewpoint
57 42 35 34 25 26 24 21 22 20 19 21 25 27 26 25 26 23 51 65 67 68 70 70 70 71 71 72 72 72 73 73 73 72 72 72 72 71 72 72 71 71 70 69 71 71 70 70 70
49 36 34 31 23 18 15 24 23 23 23 24 29 41 39 31 55 56 59 65 68 68 70 70 71 71 70 71 71 72 71 72 72 72 72 72 72 71 72 71 70 70 71 71 71 70 70 70 70
41 37 30 29 26 17 11 20 24 24 24 22 19 30 38 41 58 59 61 67 68 69 69 70 71 70 69 71 71 71 72 70 72 72 72 72 71 71 71 70 70 71 71 71 70 70 70 70 69
36 33 32 27 25 26 18 20 26 24 23 21 20 25 45 54 58 61 63 68 68 69 69 69 70 70 70 71 71 71 71 71 71 71 71 71 71 71 71 70 70 70 70 70 70 70 70 68 68
30 32 27 27 26 26 27 27 25 24 25 26 24 23 42 53 61 63 67 67 67 68 68 69 69 70 69 70 71 71 71 70 70 70 69 70 69 69 70 68 68 69 69 69 69 69 68 68 67
23 28 25 24 24 24 23 24 23 23 24 22 23 27 43 58 61 64 67 66 66 67 68 68 69 70 69 70 70 70 70 70 69 68 68 68 69 68 68 68 68 68 68 69 68 68 67 67 66
18 24 23 22 21 21 21 22 22 21 20 20 32 36 47 56 61 64 65 65 66 66 67 68 68 70 69 69 68 68 68 67 67 67 67 67 67 67 67 68 68 67 67 68 68 67 66 66 65
25 22 22 21 20 19 19 23 21 20 21 29 43 38 39 53 62 64 64 64 64 65 65 67 68 69 69 69 67 66 65 65 65 66 65 65 64 65 66 67 66 67 67 68 67 65 66 65 64
28 21 21 20 21 17 25 24 24 23 21 24 28 40 48 55 61 62 60 61 62 63 64 66 67 68 69 67 67 66 65 65 64 64 64 63 63 63 63 66 66 65 66 66 65 65 65 64 63
29 25 20 23 22 20 22 28 24 24 24 23 25 38 55 59 60 60 60 60 61 62 63 64 66 66 66 67 66 65 64 64 63 63 63 62 63 62 62 65 65 65 65 64 64 65 64 62 60
32 25 24 25 25 24 24 25 23 22 21 25 25 28 53 57 59 59 60 60 61 62 62 63 63 65 64 64 65 65 65 64 64 63 63 62 62 63 63 64 64 64 64 61 61 63 60 59 59
31 32 28 26 26 27 25 26 25 23 25 27 25 26 47 55 56 57 58 57 59 60 62 63 64 63 64 64 64 64 64 64 63 63 62 62 62 63 63 63 63 63 62 59 59 59 58 57 56
28 32 31 30 29 28 28 26 27 26 25 25 25 24 38 53 55 56 56 56 57 59 60 61 63 63 63 62 63 63 63 63 63 61 62 62 62 62 62 63 63 63 60 57 55 55 56 55 55
23 24 24 26 27 28 27 27 28 28 26 24 22 20 32 47 54 54 54 55 57 58 59 60 62 63 63 62 62 62 62 62 62 61 61 63 63 63 62 63 62 61 59 55 53 54 54 54 54
28 28 28 28 27 26 27 24 24 26 25 23 21 20 21 43 51 53 53 54 55 58 58 59 59 61 62 62 61 61 61 61 61 61 60 62 62 62 63 62 61 60 59 54 52 52 53 54 54
26 27 25 25 27 27 25 21 23 25 24 23 21 20 21 32 49 52 52 52 56 57 57 57 59 61 61 61 61 61 60 60 61 61 60 62 62 62 62 61 60 59 57 53 52 52 53 53 54
24 20 23 24 26 25 23 23 24 24 22 20 20 20 19 22 42 49 50 53 56 57 56 56 56 59 61 61 61 61 60 60 60 61 61 60 62 63 62 61 59 56 55 54 51 51 53 53 53
18 22 24 25 25 27 26 25 27 28 27 27 26 25 23 21 25 36 50 55 56 56 55 56 55 57 60 62 63 62 61 60 61 61 62 61 61 62 61 59 57 56 54 53 51 50 52 53 53
23 24 22 22 25 26 23 23 25 27 27 26 26 27 27 27 24 38 53 56 55 55 56 56 55 55 58 59 60 60 60 60 60 62 62 62 61 62 59 56 55 54 54 52 51 50 52 52 53
20 19 19 23 25 24 25 25 26 27 27 27 26 26 28 27 46 52 54 55 56 55 56 56 56 56 58 57 59 59 60 61 61 61 61 60 59 58 56 54 53 52 52 52 52 50 50 51 53
23 25 27 27 30 26 27 24 23 24 26 26 28 28 29 27 39 53 55 55 56 55 55 55 55 55 56 59 58 59 59 59 60 61 60 59 58 56 55 54 52 50 51 51 52 50 50 51 51
29 32 32 30 28 23 30 24 22 26 29 30 30 30 30 28 40 52 54 54 55 55 55 55 55 55 56 58 58 57 57 57 58 59 60 58 57 55 55 53 51 51 51 51 53 51 50 52 50
31 36 34 32 30 28 27 26 24 26 25 28 29 29 29 28 44 51 54 54 55 55 55 55 55 54 57 57 57 57 57 57 58 59 59 59 58 56 56 57 54 53 54 55 55 54 54 53 51
34 33 31 30 29 25 24 25 24 25 26 28 28 30 29 27 46 52 54 55 55 54 54 55 55 55 56 57 57 56 56 57 57 57 57 58 58 58 57 57 57 57 56 56 55 55 54 53 52
33 31 23 22 25 22 25 25 25 27 27 27 29 30 30 28 46 52 53 54 54 54 54 54 54 54 56 56 56 56 55 56 57 57 57 57 57 57 58 57 56 58 57 57 56 56 55 54 53
33 31 24 20 21 25 29 22 24 40 40 40 40 37 32 31 45 50 53 54 53 54 54 54 53 54 55 56 56 55 55 56 56 57 57 57 57 58 58 58 58 57 57 57 57 57 56 55 55
33 31 34 31 30 29 28 29 35 41 41 41 41 40 41 36 43 49 52 54 53 53 54 53 53 54 55 55 56 55 55 54 55 55 56 57 57 57 58 58 58 58 58 57 57 56 56 56 56
33 39 33 33 22 22 25 28 32 38 38 41 42 42 45 43 39 50 52 53 54 53 54 54 54 55 55 56 56 56 55 55 55 55 54 54 55 56 56 57 57 57 57 57 55 55 55 56 56
35 33 36 35 34 26 23 27 40 39 39 39 41 45 47 43 48 51 52 53 54 53 53 54 54 54 55 56 55 55 56 55 54 54 53 53 53 54 55 56 56 56 56 56 55 55 55 55 54
35 32 32 31 28 31 28 27 43 43 40 40 40 44 47 47 49 51 52 52 52 52 52 53 53 54 54 55 56 56 56 55 55 54 53 52 52 53 54 55 55 56 55 55 56 56 56 55 55
Lifted_Index
9 11 11 9 7 4 3 4 6 7 7 7 6 5 5 4 3 2 -1 -3 -4 -4 -5 -4 -4 -4 -4 -4 -5 -5 -6 -6 -7 -7 -7 -6 -6 -6 -7 -7 -6 -6 -5 -5 -5 -5 -5 -5 -5
10 11 11 9 6 4 3 5 6 7 7 7 6 5 5 4 1 -0 -2 -3 -4 -5 -5 -5 -4 -4 -4 -4 -5 -5 -6 -6 -7 -7 -7 -6 -6 -6 -6 -7 -6 -6 -5 -5 -5 -5 -5 -5 -5
11 11 10 8 6 3 3 5 6 7 7 7 7 6 4 2 -1 -2 -3 -4 -5 -5 -5 -5 -5 -4 -4 -5 -5 -5 -6 -6 -6 -6 -6 -6 -6 -6 -6 -6 -6 -6 -5 -5 -5 -5 -5 -5 -4
11 11 10 7 5 4 4 5 7 7 7 7 7 6 4 1 -1 -3 -3 -4 -5 -5 -5 -5 -5 -5 -5 -5 -5 -5 -6 -6 -6 -6 -6 -6 -6 -6 -5 -5 -5 -5 -5 -5 -5 -5 -4 -4 -4
12 11 9 7 5 4 4 6 7 7 8 8 7 6 4 1 -2 -3 -3 -4 -5 -5 -5 -5 -5 -5 -5 -5 -5 -5 -5 -5 -5 -5 -5 -5 -5 -5 -4 -4 -4 -4 -4 -5 -5 -4 -4 -3 -3
11 10 8 6 6 5 5 6 7 8 8 7 7 7 4 1 -2 -3 -3 -4 -5 -5 -5 -5 -5 -5 -5 -5 -5 -5 -5 -5 -4 -4 -4 -4 -4 -4 -3 -3 -3 -3 -4 -4 -4 -3 -3 -3 -2
11 9 8 7 6 5 5 6 7 7 8 8 7 6 4 1 -1 -2 -3 -4 -5 -5 -5 -5 -5 -5 -5 -5 -5 -5 -5 -4 -3 -3 -3 -3 -3 -3 -3 -3 -3 -3 -3 -3 -3 -3 -2 -2 -2
10 9 8 7 6 5 5 6 7 8 8 8 7 6 4 1 -1 -2 -3 -4 -5 -5 -5 -5 -5 -5 -5 -5 -5 -5 -4 -3 -2 -2 -2 -2 -1 -1 -2 -2 -2 -2 -2 -3 -3 -2 -2 -1 -1
10 9 8 7 6 5 5 6 7 8 9 8 8 6 4 1 -1 -3 -3 -4 -5 -5 -5 -5 -5 -5 -5 -5 -5 -4 -4 -3 -2 -1 -1 -0 0 0 -0 -1 -1 -1 -2 -2 -2 -2 -1 -0 0
10 9 8 8 7 7 7 7 7 8 9 8 8 6 4 1 -1 -3 -3 -3 -4 -5 -5 -5 -5 -5 -5 -5 -4 -4 -3 -3 -2 -1 0 1 1 1 1 -0 -0 -0 -1 -1 -1 -1 -0 0 1
9 8 8 9 9 9 8 8 8 8 8 7 7 6 4 1 -1 -2 -3 -3 -3 -4 -5 -5 -5 -4 -4 -4 -4 -4 -3 -3 -2 -1 0 1 1 1 1 0 0 0 0 -0 -0 -0 0 1 1
8 9 9 9 9 10 9 9 8 8 8 7 7 7 5 2 -1 -2 -3 -2 -3 -3 -4 -4 -4 -4 -4 -4 -4 -4 -3 -2 -2 -1 -0 0 1 1 1 1 1 1 1 0 0 1 1 1 2
8 8 9 9 9 9 9 9 8 8 8 7 7 7 6 3 0 -2 -2 -2 -3 -3 -4 -4 -4 -4 -4 -4 -3 -3 -2 -2 -1 -1 -0 0 0 1 1 1 1 1 1 0 1 1 2 2 3
8 8 9 9 9 9 8 8 8 8 7 7 7 6 5 3 1 -1 -2 -2 -3 -3 -3 -3 -3 -3 -3 -3 -3 -2 -2 -2 -1 -1 -0 0 0 1 1 1 1 1 1 1 1 2 3 3 3
8 8 8 8 8 8 8 7 7 7 7 7 6 6 5 3 1 -0 -2 -2 -3 -3 -3 -3 -3 -3 -3 -2 -2 -1 -1 -1 -1 -0 0 0 0 0 1 1 1 1 1 1 2 3 3 3 4
8 7 7 7 8 8 7 6 6 7 7 7 6 5 4 3 2 0 -1 -2 -2 -3 -3 -3 -2 -2 -2 -2 -1 -0 -0 -0 0 1 1 1 1 1 1 1 1 1 1 2 3 3 3 3 3
6 5 5 6 7 7 7 6 7 7 7 7 6 5 4 3 2 1 -0 -1 -2 -2 -2 -2 -1 -2 -2 -1 -1 0 0 0 1 1 1 1 1 1 1 2 2 2 2 2 3 3 3 3 3
4 4 5 6 7 7 7 7 7 7 7 6 5 4 4 3 3 2 1 -1 -2 -2 -2 -1 -1 -1 -1 -1 -0 0 1 0 0 1 2 2 2 1 2 2 2 2 2 2 3 3 3 3 3
5 5 5 6 7 7 7 7 7 8 7 6 5 4 4 3 3 2 1 -0 -1 -1 -1 -1 -1 -1 -0 0 0 1 1 0 0 1 1 2 2 2 2 2 2 2 2 2 3 4 4 4 3
5 5 4 6 7 8 7 6 7 8 8 6 5 4 4 3 3 2 1 -0 -1 -1 -1 -1 -1 -0 0 1 1 1 1 1 1 1 1 2 2 2 2 2 2 3 4 4 4 4 4 4 4
5 5 5 5 6 6 6 5 5 7 7 6 5 4 4 3 2 1 0 -1 -1 -1 -1 -1 -1 -0 1 1 1 2 2 1 1 1 1 2 2 2 2 2 2 4 5 5 5 5 5 4 4
5 5 5 6 5 5 5 4 4 6 6 5 5 4 3 3 1 0 -0 -1 -1 -1 -1 -1 -1 0 1 1 1 2 2 2 1 1 1 2 2 2 2 2 3 5 6 6 6 6 5 4 4
5 5 6 6 5 4 4 3 4 5 5 4 4 3 3 2 1 0 -1 -1 -1 -1 -1 -1 -0 1 2 2 2 2 2 2 1 1 1 2 2 2 2 3 4 6 6 6 6 6 5 5 4
5 5 5 4 4 3 4 4 4 4 4 3 3 3 2 1 1 0 -0 -1 -1 -1 -1 -1 -0 1 2 2 2 2 2 2 1 1 1 2 2 2 2 3 4 5 5 5 6 6 5 5 5
5 4 3 2 1 2 3 4 3 3 3 3 2 2 2 1 1 1 -0 -0 -1 -1 -1 -1 -0 1 2 2 2 2 2 2 2 2 2 2 2 2 3 3 4 4 5 5 5 5 5 5 5
4 4 2 1 1 2 3 3 3 2 2 2 2 2 2 1 1 1 -0 -0 -0 -1 -1 -1 -1 1 2 1 2 2 2 2 2 2 2 2 2 2 2 3 3 4 4 4 5 5 4 4 4
4 3 3 2 2 2 3 3 2 1 1 2 2 2 2 2 1 1 -0 -0 -0 -1 -1 -1 -0 1 1 1 2 2 2 2 3 3 3 2 2 1 1 2 2 3 3 4 4 4 4 3 3
3 3 3 2 2 1 2 2 1 1 1 2 2 2 2 2 1 1 0 -0 -0 -1 -1 -1 -0 1 1 2 2 2 2 2 3 3 3 2 2 1 1 1 2 2 3 3 3 3 3 3 3
3 3 3 2 2 1 1 1 1 1 1 1 1 1 1 1 1 1 0 -0 -0 -1 -2 -1 0 1 2 2 2 2 2 2 2 3 3 2 2 2 2 2 2 2 2 2 3 2 2 2 2
2 3 3 2 2 2 1 1 1 1 1 1 1 1 0 0 1 0 0 -0 -0 -1 -2 -1 0 1 2 2 2 2 2 2 2 3 3 2 2 2 2 2 2 2 2 2 2 2 2 2 2